www.pogodaiklimat.ru

Погода и климат >> Архив погоды >> Канада >> Нунавут >> Мыс Пил-Вест


ПОГОДА на Мысе Пил-Вест

  • Прогноз погоды на Мысе Пил-Вест
  • Монитор погоды на Мысе Пил-Вест

АРХИВ ПОГОДЫ на Мысе Пил-Вест

Время (UTC), дата Ветер
(напр.,м/с)
 
Видим.   Явления Облачность Т
(С)
Тd
(С)
f
(%)
Тe
(С)
Тes
(С)
Комфортность P
(гПа)
Po
(гПа)
Тmin
(С)
Tmax
(С)
R
(мм)
R24
(мм)
S
(см)
12 17.01 С 14 н/о 10/10 50 м
[]
-26.8 -30.5 71 -45 -45 опасность
обморожения
1027.5 1004.7
15 17.01 С 14 н/о 10/10 50 м
[]
-25.0 -28.5 73 -42 -42 опасность
обморожения
1027.4 1004.7
18 17.01 С 13 н/о 10/10 50 м
[]
-24.8 -28.3 73 -42 -42 опасность
обморожения
1028.0 1005.2
21 17.01 С 10 н/о 10/10 50 м
[]
-24.3 -27.6 74 -39 -39 опасность
обморожения
1028.9 1006.1
00 18.01 С 9 н/о 10/10 300 м
[]
-21.9 -25.0 76 -35 -35 опасность
обморожения
1030.1 1007.3
03 18.01 С 12 н/о 10/10 50 м
[]
-22.5 -25.6 76 -38 -38 опасность
обморожения
1029.4 1006.7
06 18.01 С 12 н/о 10/10 50 м
[]
-23.8 -27.1 74 -40 -40 опасность
обморожения
1029.8 1007.1 -27.1 -21.1
09 18.01 С 11 н/о 10/10 50 м
[]
-23.2 -26.5 74 -39 -39 опасность
обморожения
1030.7 1008.0
12 18.01 С 12 н/о 5/0
[]
-24.8 -28.2 73 -41 -41 опасность
обморожения
1031.8 1009.1
15 18.01 С 10 н/о 3/0
[]
-25.1 -28.6 72 -41 -41 опасность
обморожения
1033.2 1010.4
18 18.01 СЗ 7 н/о ясно -26.6 -30.4 70 -40 -40 опасность
обморожения
1034.7 1011.8
21 18.01 СЗ 8 н/о ясно -26.6 -30.3 71 -41 -41 опасность
обморожения
1035.0 1012.1
00 19.01 СЗ 12 н/о 9/0
[]
-22.6 -25.7 76 -38 -38 опасность
обморожения
1033.6 1010.8
03 19.01 СЗ 15 н/о 10/0
[]
-21.4 -24.3 77 -38 -38 опасность
обморожения
1031.4 1008.7
06 19.01 СЗ 14 н/о 10/0
[]
-20.2 -23.0 78 -36 -36 опасность
обморожения
1029.7 1007.0 -27.1 -19.5
09 19.01 СЗ 15 н/о 10/0
[]
-19.3 -22.0 79 -35 -35 опасность
обморожения
1027.7 1005.1
12 19.01 СЗ 14 н/о 9/0
[]
-20.7 -23.5 78 -36 -36 опасность
обморожения
1026.5 1004.0
15 19.01 СЗ 13 н/о ясно -22.7 -25.9 75 -39 -39 опасность
обморожения
1024.5 1002.0
18 19.01 СЗ 12 н/о 3/0
[]
-20.9 -23.8 77 -36 -36 опасность
обморожения
1022.4 1000.0
21 19.01 СЗ 11 н/о ясно -22.3 -25.4 76 -37 -37 опасность
обморожения
1021.1 998.7
00 20.01 СЗ 9 н/о 10/0
[]
-21.2 -24.2 77 -35 -35 опасность
обморожения
1020.3 998.0
03 20.01 С 6 н/о 10/0
[]
-22.4 -25.5 76 -34 -34 опасность
обморожения
1018.9 996.5
06 20.01 С 6 н/о 10/0
[]
-25.2 -28.7 72 -37 -37 опасность
обморожения
1017.4 995.0 -25.2 -19.2
09 20.01 С 6 н/о 10/0
[]
-25.0 -28.5 73 -37 -37 опасность
обморожения
1016.3 993.9
12 20.01 С 5 н/о 10/10 1500 м
[]
-23.7 -27.0 74 -34 -34 опасность
обморожения
1014.8 992.5
15 20.01 С 9 н/о ясно -28.6 -32.5 69 -44 -44 опасность
обморожения
1013.7 991.2
18 20.01 С 10 н/о ясно -30.1 -34.2 67 -47 -47 опасность
обморожения
1013.3 990.7
21 20.01 С 11 н/о ясно -31.2 -35.5 66 -49 -49 опасность
обморожения
1013.1 990.5
00 21.01 СЗ 10 н/о 3/0
[]
-31.5 -35.8 66 -49 -49 опасность
обморожения
1013.2 990.6
03 21.01 СЗ 8 н/о 10/0
[]
-32.5 -37.0 64 -48 -48 опасность
обморожения
1013.0 990.3
06 21.01 С 9 н/о ясно -31.5 -35.9 65 -48 -48 опасность
обморожения
1012.7 990.0 -32.8 -23.5
09 21.01 СЗ 7 н/о 10/10 1500 м
[]
-31.8 -36.2 65 -47 -47 опасность
обморожения
1012.4 989.6
12 21.01 СЗ 7 н/о 10/10 1500 м
[]
-32.8 -37.4 63 -48 -48 опасность
обморожения
1012.1 989.3
15 21.01 СЗ 7 н/о 10/10 1500 м
[]
-32.6 -37.1 64 -48 -48 опасность
обморожения
1012.1 989.3
18 21.01 С 7 н/о 10/10 1500 м
[]
-33.0 -37.6 63 -48 -48 опасность
обморожения
1012.5 989.7
21 21.01 СВ 3 н/о 5/5 1500 м
[]
-34.0 -38.7 62 -45 -45 опасность
обморожения
1013.4 990.5
00 22.01 С 4 н/о ясно -35.1 -39.9 61 -47 -47 опасность
обморожения
1014.3 991.3
03 22.01 СВ 5 н/о 9/9 1500 м
[]
-37.1 -42.2 59 -51 -51 опасность
обморожения
1014.6 991.6
06 22.01 С 4 н/о 10/10 600 м
[]
-37.4 -42.5 59 -51 -51 опасность
обморожения
1015.2 992.1 -38.0 -30.9
09 22.01 С 6 н/о 5/5 600 м
[]
-38.9 -44.2 57 -55 -55 опасность
обморожения
1016.1 992.9
12 22.01 С 4 н/о ясно -40.2 -45.8 55 -54 -54 опасность
обморожения
1016.3 993.0
15 22.01 С 11 н/о ясно -40.8 -46.5 54 -62 -62 опасность
обморожения
1016.2 992.8
18 22.01 СЗ 9 н/о 5/0
[]
-40.4 -46.0 55 -60 -60 опасность
обморожения
1017.3 993.9
21 22.01 С 11 н/о 9/9 1500 м
[]
-38.9 -44.3 56 -59 -59 опасность
обморожения
1018.7 995.3
00 23.01 С 10 н/о 10/10 1000 м
[]
-36.9 -42.1 58 -56 -56 опасность
обморожения
1020.3 996.9
03 23.01 С 12 н/о ясно -37.0 -42.2 58 -57 -57 опасность
обморожения
1020.9 997.4
06 23.01 СЗ 9 н/о 10/10 1500 м
[]
-37.1 -42.2 59 -56 -56 опасность
обморожения
1021.4 997.9 -41.1 -36.5
09 23.01 СЗ 11 н/о 3/3 1500 м
[]
-37.7 -42.9 58 -58 -58 опасность
обморожения
1021.5 998.1
12 23.01 СЗ 11 н/о ясно -37.8 -43.1 57 -58 -58 опасность
обморожения
1021.4 998.0
15 23.01 С 11 н/о ясно -38.0 -43.3 57 -58 -58 опасность
обморожения
1021.2 997.8
18 23.01 С 11 н/о ясно -37.6 -42.9 57 -58 -58 опасность
обморожения
1021.6 998.2
21 23.01 С 9 н/о ясно -37.5 -42.8 57 -56 -56 опасность
обморожения
1022.5 999.1
00 24.01 С 8 н/о ясно -36.9 -42.1 58 -55 -55 опасность
обморожения
1023.3 999.9
03 24.01 СЗ 8 н/о ясно -37.2 -42.5 58 -55 -55 опасность
обморожения
1023.3 999.9
06 24.01 СЗ 3 н/о ясно -36.1 -41.1 60 -46 -46 опасность
обморожения
1024.1 1000.7 -38.3 -35.2
09 24.01 СЗ 4 н/о ясно -35.3 -40.2 61 -48 -48 опасность
обморожения
1024.5 1001.1

 

Местоположение метеостанции Мыс Пил-Вест (Нунавут, Канада): широта 69.03 долгота -107.80 высота над уровнем моря 165 м.

В архиве по умолчанию представлена погода на Мысе Пил-Вест за последнюю неделю. Архивные данные за месяц целиком и за предыдущие месяцы, начиная с января 2011 года, Вы можете получить, выбрав интересующий диапазон дат из раскрывающегося списка и нажав кнопку "Ввод!".


*Определитесь, кто Вы:
робот инопланетянин человек

Внимание! Время в таблицах - всемирное. Для получения местного времени необходимо прибавить поправку, которая равна -7 ч.

Смотрите также архив погоды в соседних городах и на ближайших метеорологических станциях:

Погода в Кеймбридж-Бее (Нунавут, Канада) (108 км)
Погода в Кембридж Бэй (Нунавут, Канада) (108 км)
Погода на Острове Хат (Нунавут, Канада) (325 км)
Погода в Куглуктуке (Нунавут, Канада) (327 км)
Погода в Куглуктуке (Северо-Западные территории, Канада) (327 км)
Погода в Люпине (Нунавут, Канада) (390 км)
Погода в Саскатуне (Саскачеван, Канада) (390 км)
Погода в Аэропорту Холман (Северо-Западные территории, Канада) (427 км)
Погода на Реке Крокер (Нунавут, Канада) (451 км)
Погода в Джойа Хейвен (Нунавут, Канада) (481 км)

Пояснения к столбцам:

Ветер - указаны скорость ветра в м/с - средняя за 10 мин, порывы в срок и между сроками (в фигурных скобках) и направление, откуда дует ветер: С - северный, СВ - северо-восточный, В - восточный, ЮВ - юго-восточный, Ю - южный, ЮЗ - юго-западный, З - западный, СЗ - северо-западный.
Видимость - горизонтальная дальность видимости в метрах или километрах. При видимости от 1 до 10 км при отсутствии осадков обычно наблюдается дымка, при ухудшении видимости до 1 км и менее - туман. В сухую погоду видимость может ухудшаться дымом, пылью или мглою.
Явления - указаны атмосферные явления, наблюдавшиеся в срок или в последний час перед сроком; фигурными скобками обозначены явления, наблюдавшиеся между сроками (за 1-3 часа до срока); квадратными скобками обозначены град или гололедные отложения с указанием их диаметра в мм.
Облачность - указаны через наклонную черту общая и нижняя облачность в баллах и высота нижней границы облаков в метрах; квадратными скобками обозначены формы облаков: Ci - перистые, Cs - перисто-слоистые, Cc - перисто-кучевые, Ac - высококучевые, As - высокослоистые, Sc - слоисто-кучевые, Ns - слоисто-дождевые, Cu - кучевые, Cb - кучево-дождевые. Подробнее классификацию облаков см. в Атласе облаков (PDF).
T - Температура воздуха - температура, измеренная на высоте 2 м над землей.
Td - Температура точки росы - температура, при понижении до которой содержащийся в воздухе водяной пар достигнет насыщения.
f - Относительная влажность воздуха - влажноcть воздуха, измеренная на высоте 2 м над землей.
Te - Эффективная температура - температура, которую ощущает одетый по сезону человек в тени. Характеристика душности погоды. При расчете учитывается влияние влажности воздуха и скорости ветра на теплоощущения человека.
Tes - Эффективная температура на солнце - температура, которую ощущает человек, с поправкой на солнечный нагрев. Характеристика знойности погоды. Зависит от высоты солнца над горизонтом, облачности и скорости ветра. Ночью, в пасмурную погоду, а также при ветре 12 м/с и более поправка равна нулю.
P - Атмосферное давление - приведенное к уровню моря атмосферное давление.
Po - Атмосферное давление - измеренное на уровне метеостанции атмосферное давление.
Tmin - Минимальная температура - минимум температуры воздуха на высоте 2 м над землей.
Tmax - Максимальная температура - максимум температуры воздуха на высоте 2 м над землей.
R - Количество осадков - Количество выпавших осадков за период времени, мм. При наведении курсора мыши на число - период времени, за который выпало указанное количество осадков.
R24 - Количество осадков - Количество выпавших осадков за 24 часа, мм.
S - Снежный покров - Высота снежного покрова, см. При наведении курсора мыши на число - состояние снежного покрова и степень покрытия местности в баллах.